�������l�o���
Date,Time,MP-1(��Sv/h),MP-2(��Sv/h),MP-3(��Sv/h),MP-4(��Sv/h),MP-5(��Sv/h),MP-6(��Sv/h),MP-7(��Sv/h),MP-8(��Sv/h),����,����(m/s),���J
2022/01/30,00:00,0.585,0.876,0.556,1.078,0.757,0.352,0.613,0.582,�k��,5.4,��
2022/01/30,00:10,0.586,0.875,0.558,1.077,0.759,0.354,0.615,0.580,�k�k��,6.5,��
2022/01/30,00:20,0.587,0.876,0.556,1.081,0.756,0.352,0.613,0.580,�k�k��,6.1,��
2022/01/30,00:30,0.589,0.875,0.557,1.077,0.756,0.353,0.613,0.581,�k�k��,7.7,��
2022/01/30,00:40,0.586,0.876,0.554,1.076,0.758,0.352,0.615,0.581,�k�k��,7.8,��
2022/01/30,00:50,0.587,0.877,0.558,1.078,0.756,0.350,0.614,0.581,�k�k��,7.6,��
2022/01/30,01:00,0.587,0.879,0.557,1.081,0.757,0.351,0.613,0.581,�k�k��,7.9,��
2022/01/30,01:10,0.586,0.875,0.557,1.077,0.757,0.351,0.614,0.581,�k��,7.7,��
2022/01/30,01:20,0.587,0.876,0.558,1.081,0.757,0.351,0.614,0.580,�k��,6.8,��
2022/01/30,01:30,0.588,0.877,0.556,1.079,0.756,0.350,0.614,0.580,�k��,6.8,��
2022/01/30,01:40,0.586,0.876,0.555,1.079,0.757,0.352,0.613,0.582,�k��,6.0,��
2022/01/30,01:50,0.589,0.876,0.557,1.077,0.757,0.350,0.614,0.581,�k��,5.9,��
2022/01/30,02:00,0.588,0.879,0.555,1.078,0.757,0.351,0.614,0.581,�k��,6.2,��
2022/01/30,02:10,0.586,0.876,0.556,1.077,0.756,0.352,0.613,0.579,�k��,7.6,��
2022/01/30,02:20,0.588,0.876,0.556,1.077,0.757,0.353,0.614,0.582,�k��,7.5,��
2022/01/30,02:30,0.587,0.875,0.555,1.078,0.758,0.352,0.613,0.580,�k��,7.1,��
2022/01/30,02:40,0.588,0.877,0.555,1.079,0.757,0.352,0.612,0.580,�k��,8.5,��
2022/01/30,02:50,0.587,0.878,0.555,1.078,0.756,0.352,0.614,0.581,�k��,8.5,��
2022/01/30,03:00,0.588,0.876,0.556,1.080,0.758,0.352,0.613,0.580,�k��,9.1,��
2022/01/30,03:10,0.587,0.878,0.557,1.078,0.757,0.353,0.616,0.581,�k��,9.3,��
2022/01/30,03:20,0.586,0.877,0.556,1.079,0.758,0.353,0.612,0.582,�k��,9.1,��
2022/01/30,03:30,0.587,0.876,0.555,1.079,0.758,0.352,0.615,0.580,�k��,8.7,��
2022/01/30,03:40,0.587,0.876,0.555,1.078,0.759,0.352,0.614,0.582,�k��,7.3,��
2022/01/30,03:50,0.587,0.876,0.553,1.079,0.756,0.353,0.614,0.581,�k��,8.0,��
2022/01/30,04:00,0.587,0.876,0.556,1.080,0.756,0.352,0.615,0.580,�k��,9.0,��
2022/01/30,04:10,0.587,0.877,0.554,1.079,0.757,0.352,0.615,0.581,�k��,10.0,��
2022/01/30,04:20,0.586,0.877,0.554,1.077,0.756,0.350,0.615,0.582,�k��,7.5,��
2022/01/30,04:30,0.588,0.876,0.556,1.079,0.757,0.351,0.616,0.582,�k��,6.7,��
2022/01/30,04:40,0.589,0.876,0.556,1.078,0.757,0.353,0.617,0.579,�k��,7.2,��
2022/01/30,04:50,0.587,0.877,0.556,1.078,0.758,0.353,0.614,0.581,�k��,8.3,��
2022/01/30,05:00,0.587,0.875,0.557,1.077,0.756,0.351,0.614,0.581,�k��,8.6,��
2022/01/30,05:10,0.587,0.876,0.555,1.077,0.757,0.351,0.614,0.580,�k��,9.1,��
2022/01/30,05:20,0.585,0.876,0.555,1.077,0.756,0.351,0.616,0.581,�k��,8.4,��
2022/01/30,05:30,0.587,0.876,0.554,1.078,0.759,0.352,0.615,0.580,�k��,8.7,��
2022/01/30,05:40,0.587,0.878,0.554,1.078,0.757,0.351,0.615,0.582,�k��,7.1,��
2022/01/30,05:50,0.586,0.875,0.554,1.077,0.755,0.351,0.614,0.581,�k��,8.1,��
2022/01/30,06:00,0.588,0.876,0.557,1.077,0.756,0.350,0.615,0.581,�k��,6.5,��
2022/01/30,06:10,0.587,0.876,0.556,1.077,0.757,0.352,0.614,0.579,�k��,6.6,��
2022/01/30,06:20,0.587,0.877,0.556,1.078,0.756,0.351,0.614,0.580,�k��,7.8,��
2022/01/30,06:30,0.585,0.879,0.556,1.077,0.756,0.353,0.615,0.581,�k��,7.4,��
2022/01/30,06:40,0.587,0.876,0.555,1.079,0.758,0.351,0.615,0.581,�k��,8.1,��
2022/01/30,06:50,0.585,0.877,0.556,1.075,0.757,0.351,0.614,0.581,�k��,8.3,��
2022/01/30,07:00,0.587,0.874,0.555,1.078,0.756,0.351,0.613,0.581,�k��,7.2,��
2022/01/30,07:10,0.585,0.875,0.555,1.078,0.757,0.351,0.615,0.582,�k��,7.2,��
2022/01/30,07:20,0.587,0.876,0.556,1.077,0.757,0.351,0.614,0.583,�k��,6.4,��
2022/01/30,07:30,0.586,0.874,0.556,1.077,0.756,0.351,0.612,0.581,�k��,7.3,��
2022/01/30,07:40,0.587,0.876,0.556,1.078,0.753,0.353,0.615,0.581,�k��,5.8,��
2022/01/30,07:50,0.585,0.877,0.556,1.078,0.756,0.353,0.613,0.582,�k��,6.3,��
2022/01/30,08:00,0.585,0.876,0.555,1.080,0.757,0.353,0.614,0.581,�k�k��,5.5,��
2022/01/30,08:10,0.588,0.876,0.554,1.079,0.756,0.352,0.616,0.582,�k�k��,5.6,��
2022/01/30,08:20,0.586,0.876,0.555,1.077,0.757,0.353,0.613,0.580,�k��,6.1,��
2022/01/30,08:30,0.587,0.879,0.554,1.078,0.755,0.350,0.614,0.581,�k��,6.9,��
2022/01/30,08:40,0.586,0.878,0.556,1.080,0.756,0.352,0.616,0.581,�k��,5.3,��
2022/01/30,08:50,0.586,0.876,0.556,1.077,0.755,0.352,0.613,0.582,���k��,5.1,��
2022/01/30,09:00,0.587,0.879,0.555,1.076,0.756,0.351,0.615,0.581,�k��,5.1,��
2022/01/30,09:10,0.587,0.877,0.556,1.079,0.756,0.352,0.615,0.580,���k��,5.4,��
2022/01/30,09:20,0.587,0.875,0.556,1.076,0.756,0.353,0.614,0.581,���k��,4.3,��
2022/01/30,09:30,0.585,0.876,0.555,1.081,0.757,0.352,0.613,0.582,�k��,4.7,��
2022/01/30,09:40,0.588,0.876,0.557,1.079,0.755,0.353,0.615,0.580,�k��,4.2,��
2022/01/30,09:50,0.588,0.877,0.556,1.077,0.756,0.352,0.614,0.582,�k��,3.2,��
2022/01/30,10:00,0.587,0.878,0.556,1.078,0.757,0.351,0.614,0.581,��,4.7,��
2022/01/30,10:10,0.590,0.878,0.556,1.079,0.757,0.352,0.615,0.581,��,4.4,��
2022/01/30,10:20,0.586,0.880,0.558,1.079,0.757,0.353,0.615,0.582,���k��,5.4,��
2022/01/30,10:30,0.588,0.879,0.557,1.080,0.757,0.353,0.613,0.582,���k��,4.4,��
2022/01/30,10:40,0.587,0.879,0.558,1.081,0.757,0.353,0.613,0.581,�k��,3.9,��
2022/01/30,10:50,0.589,0.878,0.557,1.078,0.758,0.353,0.615,0.583,�k�k��,3.1,��
2022/01/30,11:00,0.589,0.878,0.558,1.079,0.758,0.353,0.612,0.582,�k�k��,2.5,��
2022/01/30,11:10,0.587,0.881,0.558,1.080,0.757,0.353,0.614,0.582,�k��,2.0,��
2022/01/30,11:20,0.589,0.881,0.558,1.080,0.759,0.354,0.614,0.584,�k�k��,2.6,��
2022/01/30,11:30,0.589,0.879,0.557,1.078,0.758,0.353,0.612,0.581,��,1.1,��
2022/01/30,11:40,0.590,0.881,0.557,1.079,0.760,0.352,0.612,0.581,�k�k��,1.7,��
2022/01/30,11:50,0.588,0.879,0.557,1.081,0.757,0.355,0.613,0.583,�k��,1.1,��
2022/01/30,12:00,0.592,0.879,0.558,1.082,0.760,0.353,0.612,0.581,���k��,1.7,��
2022/01/30,12:10,0.589,0.877,0.557,1.079,0.761,0.352,0.612,0.582,�k�k��,1.2,��
2022/01/30,12:20,0.589,0.878,0.557,1.081,0.758,0.354,0.611,0.581,�k�k��,2.2,��
2022/01/30,12:30,0.589,0.877,0.559,1.080,0.760,0.353,0.613,0.582,�k,2.3,��
2022/01/30,12:40,0.589,0.878,0.557,1.078,0.759,0.354,0.611,0.582,�k�k��,3.3,��
2022/01/30,12:50,0.589,0.880,0.559,1.080,0.760,0.352,0.612,0.582,�k,2.3,��
2022/01/30,13:00,0.589,0.878,0.557,1.082,0.760,0.352,0.613,0.583,�k,3.2,��
2022/01/30,13:10,0.588,0.879,0.559,1.080,0.761,0.352,0.615,0.581,�k�k��,2.6,��
2022/01/30,13:20,0.591,0.881,0.559,1.081,0.761,0.353,0.614,0.582,�k,2.5,��
2022/01/30,13:30,0.590,0.878,0.559,1.082,0.761,0.353,0.613,0.582,���k��,2.5,��
2022/01/30,13:40,0.589,0.878,0.557,1.080,0.760,0.353,0.613,0.583,�k,2.9,��
2022/01/30,13:50,0.590,0.879,0.558,1.079,0.759,0.353,0.613,0.583,�k��,2.8,��
2022/01/30,14:00,0.590,0.881,0.558,1.082,0.759,0.354,0.615,0.582,���k��,2.0,��
2022/01/30,14:10,0.589,0.881,0.557,1.080,0.760,0.353,0.614,0.582,�k��,2.9,��
2022/01/30,14:20,0.592,0.881,0.560,1.084,0.760,0.354,0.612,0.583,���k��,3.0,��
2022/01/30,14:30,0.590,0.881,0.559,1.081,0.762,0.353,0.615,0.581,���쓌,0.6,��
2022/01/30,14:40,0.590,0.881,0.558,1.079,0.759,0.353,0.615,0.582,���쐼,6.0,��
2022/01/30,14:50,0.591,0.882,0.560,1.084,0.760,0.353,0.613,0.583,��,4.9,��
2022/01/30,15:00,0.590,0.880,0.558,1.083,0.762,0.354,0.615,0.582,��,3.8,��
2022/01/30,15:10,0.590,0.880,0.557,1.079,0.760,0.353,0.614,0.582,��,5.8,��
2022/01/30,15:20,0.591,0.879,0.558,1.081,0.762,0.353,0.615,0.582,��,7.1,��
2022/01/30,15:30,0.590,0.878,0.559,1.081,0.760,0.352,0.613,0.582,��,6.9,��
2022/01/30,15:40,0.589,0.882,0.557,1.082,0.760,0.353,0.614,0.583,��,6.3,��
2022/01/30,15:50,0.589,0.880,0.558,1.080,0.761,0.353,0.615,0.581,���쐼,6.0,��
2022/01/30,16:00,0.590,0.880,0.558,1.080,0.761,0.352,0.615,0.583,��,5.4,��
2022/01/30,16:10,0.589,0.880,0.557,1.081,0.759,0.353,0.615,0.583,���k��,2.9,��
2022/01/30,16:20,0.591,0.878,0.558,1.081,0.762,0.353,0.616,0.582,�k�k��,3.9,��
2022/01/30,16:30,0.587,0.880,0.556,1.082,0.763,0.353,0.615,0.584,�k��,1.2,��
2022/01/30,16:40,0.589,0.878,0.559,1.081,0.761,0.353,0.615,0.581,��,2.3,��
2022/01/30,16:50,0.590,0.879,0.556,1.081,0.760,0.352,0.615,0.581,��,2.0,��
2022/01/30,17:00,0.589,0.879,0.557,1.083,0.761,0.352,0.613,0.583,��,5.3,��
2022/01/30,17:10,0.587,0.879,0.558,1.082,0.759,0.351,0.613,0.581,��,5.9,��
2022/01/30,17:20,0.588,0.878,0.555,1.080,0.761,0.351,0.614,0.584,��,5.5,��
2022/01/30,17:30,0.588,0.879,0.558,1.081,0.760,0.352,0.614,0.581,���k��,5.7,��
2022/01/30,17:40,0.589,0.877,0.557,1.081,0.760,0.352,0.613,0.581,��,6.7,��
2022/01/30,17:50,0.587,0.880,0.556,1.081,0.760,0.351,0.615,0.581,��,6.9,��
2022/01/30,18:00,0.589,0.881,0.557,1.080,0.760,0.352,0.615,0.581,���k��,10.3,��
2022/01/30,18:10,0.588,0.879,0.556,1.081,0.758,0.352,0.613,0.583,��,9.0,��
2022/01/30,18:20,0.588,0.878,0.554,1.080,0.759,0.352,0.615,0.581,���k��,8.8,��
2022/01/30,18:30,0.588,0.878,0.553,1.079,0.760,0.351,0.616,0.582,���k��,7.2,��
2022/01/30,18:40,0.589,0.879,0.554,1.080,0.760,0.351,0.614,0.582,���k��,6.4,��
2022/01/30,18:50,0.586,0.879,0.554,1.080,0.757,0.351,0.613,0.582,���k��,5.2,��
2022/01/30,19:00,0.587,0.878,0.556,1.082,0.761,0.352,0.614,0.582,���k��,5.7,��
2022/01/30,19:10,0.587,0.876,0.555,1.081,0.760,0.350,0.614,0.581,���k��,4.1,��
2022/01/30,19:20,0.587,0.879,0.557,1.079,0.759,0.353,0.617,0.581,���k��,3.2,��
2022/01/30,19:30,0.588,0.880,0.556,1.079,0.760,0.352,0.614,0.582,��,3.7,��
2022/01/30,19:40,0.587,0.878,0.556,1.080,0.760,0.353,0.615,0.582,���k��,3.3,��
2022/01/30,19:50,0.589,0.880,0.556,1.081,0.760,0.351,0.614,0.582,�k�k��,1.7,��
2022/01/30,20:00,0.586,0.878,0.555,1.081,0.758,0.354,0.614,0.583,���k��,2.0,��
2022/01/30,20:10,0.588,0.878,0.556,1.079,0.757,0.353,0.615,0.582,�k��,0.9,��
2022/01/30,20:20,0.589,0.880,0.557,1.081,0.759,0.352,0.613,0.580,���k��,0.9,��
2022/01/30,20:30,0.587,0.879,0.556,1.080,0.760,0.352,0.615,0.582,�k,2.3,��
2022/01/30,20:40,0.585,0.879,0.555,1.080,0.758,0.351,0.613,0.581,�k��,2.0,��
2022/01/30,20:50,0.588,0.878,0.555,1.082,0.761,0.352,0.613,0.581,�k��,2.6,��
2022/01/30,21:00,0.587,0.880,0.556,1.081,0.759,0.353,0.613,0.580,���k��,3.5,��
2022/01/30,21:10,0.588,0.879,0.557,1.082,0.760,0.352,0.615,0.580,�k�k��,2.0,��
2022/01/30,21:20,0.587,0.878,0.555,1.080,0.760,0.353,0.614,0.584,�k,2.3,��
2022/01/30,21:30,0.587,0.879,0.557,1.078,0.759,0.352,0.612,0.582,�k�k��,0.9,��
2022/01/30,21:40,0.586,0.877,0.556,1.080,0.758,0.352,0.613,0.579,-,CALM,��
2022/01/30,21:50,0.587,0.878,0.556,1.079,0.759,0.351,0.614,0.581,�k��,1.2,��
2022/01/30,22:00,0.585,0.879,0.555,1.080,0.758,0.352,0.613,0.582,�k��,1.2,��
2022/01/30,22:10,0.587,0.879,0.554,1.082,0.760,0.352,0.612,0.582,�k�k��,2.5,��
2022/01/30,22:20,0.587,0.879,0.556,1.081,0.760,0.351,0.614,0.582,�k�k��,2.0,��
2022/01/30,22:30,0.586,0.879,0.556,1.079,0.758,0.352,0.614,0.581,�k,2.0,��
2022/01/30,22:40,0.587,0.881,0.555,1.077,0.759,0.352,0.612,0.582,�k�k��,2.6,��
2022/01/30,22:50,0.587,0.880,0.556,1.079,0.758,0.352,0.612,0.582,�k,1.9,��
2022/01/30,23:00,0.587,0.878,0.554,1.080,0.756,0.353,0.612,0.581,�k,2.8,��
2022/01/30,23:10,0.586,0.877,0.557,1.078,0.757,0.353,0.613,0.581,�k,2.0,��
2022/01/30,23:20,0.587,0.879,0.555,1.080,0.760,0.352,0.615,0.582,�k��,2.3,��
2022/01/30,23:30,0.585,0.878,0.555,1.082,0.757,0.351,0.615,0.582,�k�k��,1.7,��
2022/01/30,23:40,0.586,0.877,0.555,1.081,0.757,0.352,0.614,0.581,�k�k��,2.9,��
2022/01/30,23:50,0.587,0.878,0.556,1.079,0.759,0.351,0.614,0.581,�k,3.9,��
